Wind_Speed
14 14 15 15 15 16 15 14 13 12 11 9 9 9 8 8 7 7 7 7 8 8 8 8 9 9 10 10 11 11 12 13 14 15 16 17 18 19 20 20 21 21 21 21
15 15 15 16 16 16 16 14 13 12 11 10 10 10 10 10 9 9 9 9 9 9 9 10 10 11 11 12 13 14 14 15 16 17 18 19 20 21 22 23 23 23 23 23
15 15 15 15 15 16 16 15 14 13 11 12 12 11 11 11 11 11 11 11 11 11 11 12 12 13 13 14 15 16 17 18 19 20 21 22 23 24 25 25 26 26 26 27
16 16 15 13 15 15 15 15 14 13 13 12 12 13 13 12 13 13 12 12 12 13 13 14 14 15 16 17 18 19 20 20 21 22 23 24 25 27 27 28 29 29 30 30
17 17 14 14 14 15 15 14 14 13 14 14 14 14 13 14 14 14 14 14 14 14 15 16 16 17 18 19 20 21 22 23 24 25 26 27 28 29 31 32 32 32 33 33
18 18 16 14 15 15 15 14 14 14 14 15 15 15 14 15 15 16 16 16 16 16 17 18 19 20 21 22 23 24 25 26 27 28 29 30 31 33 34 35 35 36 37 37
19 19 17 16 16 16 16 13 15 15 15 16 16 16 16 16 17 18 17 18 18 19 20 21 22 23 24 25 26 27 28 29 30 31 32 33 35 36 37 38 39 40 41 42
21 20 17 18 18 18 17 17 17 17 17 17 17 18 18 18 19 19 19 20 21 22 23 25 26 26 27 28 29 30 31 32 33 34 35 36 38 39 41 42 42 43 44 46
23 21 20 20 20 20 19 19 19 19 20 20 19 19 20 21 21 22 23 23 24 25 27 28 28 29 30 31 32 33 34 35 36 37 38 40 41 43 44 45 46 47 48 49
25 23 23 23 22 22 22 21 21 21 22 22 22 22 23 24 24 25 26 26 27 28 29 30 31 32 33 34 35 36 37 38 39 40 42 43 45 46 47 49 50 51 52 53
27 26 26 25 25 24 24 24 24 24 25 25 25 26 26 27 27 28 29 29 30 31 32 33 34 35 37 37 38 39 40 41 42 43 45 46 47 49 50 52 54 55 56 57
30 29 30 29 29 28 27 27 26 27 27 28 28 28 28 29 30 31 32 33 33 34 35 36 37 38 39 40 41 41 42 43 45 46 47 48 50 52 53 55 57 58 59 60
34 34 34 33 32 31 31 30 30 30 30 31 31 31 32 32 33 34 35 36 37 38 38 39 40 40 41 43 43 44 45 46 47 48 49 51 53 54 56 57 59 60 61 63
36 36 35 35 35 35 35 34 33 33 33 34 34 35 35 36 37 37 38 39 40 41 42 42 42 43 44 44 45 46 47 48 49 51 52 54 56 57 58 59 61 62 63 64
38 38 38 38 38 38 37 37 36 36 37 37 38 38 38 39 39 40 41 41 42 43 44 44 44 45 45 46 46 48 49 51 52 54 55 56 58 59 61 63 64 65 65 65
39 39 39 39 39 39 39 39 39 39 39 39 39 39 40 40 41 41 42 42 43 43 44 45 45 46 47 48 49 50 51 53 55 56 57 59 60 62 64 65 66 66 66 66
40 40 40 40 40 41 40 40 40 40 40 40 40 41 41 41 42 42 43 44 44 44 45 45 46 48 49 50 51 52 54 55 57 58 60 61 63 65 66 67 67 67 66 66
41 41 42 42 42 42 42 42 42 42 42 42 42 42 42 43 43 44 45 45 45 46 46 47 49 50 51 52 53 55 56 58 59 61 62 63 65 66 67 68 68 68 67 67
42 42 42 42 42 43 43 42 42 42 42 43 43 43 44 44 45 45 46 47 47 48 49 50 51 52 53 54 56 57 59 60 62 63 64 66 67 67 68 69 69 69 68 67
43 43 43 43 43 43 43 43 43 43 44 44 45 45 46 46 47 48 48 48 49 50 51 52 53 54 55 57 58 59 61 62 64 65 66 67 68 68 69 69 69 68 67 67
43 44 44 44 44 44 44 44 44 44 45 46 46 47 48 48 49 49 49 50 51 52 53 54 55 56 57 59 60 61 62 64 66 67 68 68 68 69 69 68 68 67 66 65
42 43 44 45 45 45 45 45 46 46 46 47 47 48 48 49 49 50 50 51 53 54 55 56 57 58 59 60 61 63 64 66 67 67 68 68 68 68 67 66 66 65 65 63
43 43 44 45 45 46 46 47 47 47 48 48 48 49 49 50 51 52 53 54 55 56 57 58 59 60 61 62 63 64 65 66 66 67 67 66 66 66 65 65 64 64 62 61
44 44 45 46 46 47 47 48 48 49 49 50 50 51 52 52 53 54 55 56 57 57 58 59 60 61 62 63 64 65 65 65 65 65 65 64 64 64 64 63 62 61 60 58
46 46 46 46 47 47 48 48 49 50 51 51 52 53 54 54 55 56 57 57 58 59 60 60 61 62 63 64 64 65 65 65 64 64 63 63 63 62 62 61 60 59 57 55
48 48 48 48 48 49 49 50 50 51 51 52 53 54 55 56 57 58 58 59 60 60 60 61 61 62 63 63 64 64 63 63 63 62 62 62 61 60 59 59 57 56 54 52
49 49 49 49 50 50 51 51 52 52 53 54 55 56 57 58 58 59 59 59 59 59 59 60 61 62 62 62 62 62 61 61 61 61 60 59 58 57 56 55 54 52 50 48
Wind_Direction
197 201 203 205 209 216 222 226 227 222 220 217 222 226 230 231 233 236 241 244 249 256 263 270 277 282 286 289 293 296 301 306 309 311 314 316 318 320 321 321 320 320 319 318
202 206 208 209 213 217 223 225 226 225 226 231 231 232 234 237 240 243 246 250 256 261 268 273 278 283 286 290 293 296 300 304 306 308 310 311 313 315 316 315 314 314 314 314
213 215 214 213 217 221 224 227 228 229 232 231 232 236 239 241 243 246 251 257 261 266 270 274 278 281 284 288 292 295 298 301 303 305 307 308 310 311 312 312 311 310 310 310
224 225 225 215 221 222 226 229 229 229 230 233 237 239 242 245 247 250 256 261 265 269 273 277 279 282 285 289 292 294 296 299 302 304 305 306 308 309 310 310 309 308 307 307
230 231 226 221 224 225 227 227 228 229 232 237 240 243 245 248 252 255 259 263 268 272 276 279 282 285 288 292 294 295 296 298 301 303 304 304 306 307 307 307 307 306 306 305
232 234 226 221 227 231 233 234 235 237 237 241 244 246 248 252 254 257 260 265 270 274 277 281 284 287 289 291 293 295 296 298 299 301 302 303 304 305 306 306 305 304 304 303
234 236 232 230 234 237 240 241 242 243 244 245 247 249 253 256 257 259 263 267 272 276 279 283 285 288 290 291 293 295 296 297 298 300 301 302 303 303 304 305 304 303 302 302
235 236 236 239 241 242 243 244 246 248 249 250 252 254 256 259 262 264 267 271 274 277 280 283 286 289 290 291 293 295 296 297 297 299 300 301 302 303 303 304 304 303 302 302
239 240 240 243 245 246 246 248 250 251 252 254 256 258 261 264 266 268 271 273 276 279 282 284 287 288 290 291 293 294 295 296 298 299 299 300 301 302 303 303 303 303 302 302
241 241 243 244 246 247 249 251 252 253 254 256 259 262 264 267 269 271 273 276 278 280 282 285 287 288 290 291 292 293 294 296 297 299 300 300 301 302 303 303 303 304 303 302
244 244 246 247 249 251 252 254 254 255 257 259 262 265 267 269 271 273 275 277 279 281 283 285 286 288 289 290 291 293 294 296 297 299 300 301 301 302 303 304 304 304 304 303
246 246 248 249 251 254 255 256 257 258 260 262 265 266 268 269 271 274 276 278 279 281 283 285 286 287 288 289 291 292 294 295 297 298 299 300 301 302 303 304 304 305 305 305
249 248 250 251 252 254 255 256 258 260 262 264 266 267 269 270 272 274 276 277 279 281 283 284 285 286 287 289 290 292 293 295 296 297 299 300 301 302 303 304 305 306 306 306
251 251 251 252 253 254 256 257 259 260 262 265 266 268 270 271 273 274 276 277 279 281 283 284 285 286 287 289 290 291 293 294 296 297 298 300 301 302 303 304 305 305 305 306
251 253 253 254 255 257 258 260 261 262 264 265 267 268 270 271 273 274 276 277 279 281 282 284 285 286 287 289 290 291 293 294 296 297 299 300 301 302 303 304 305 305 305 305
250 251 253 255 256 257 259 260 262 263 265 267 268 269 270 271 273 274 276 278 279 280 282 283 285 286 287 289 290 292 293 295 296 298 299 300 301 302 303 304 305 305 305 305
252 253 254 255 257 258 260 261 263 264 266 268 269 269 270 272 274 275 276 278 279 280 282 283 285 286 287 289 290 292 294 295 297 298 299 300 301 302 303 305 305 305 305 305
254 254 255 256 258 259 261 262 263 265 266 267 268 269 271 272 274 275 276 278 279 281 282 284 285 286 288 289 291 292 294 296 297 298 299 300 301 302 303 304 305 305 305 305
254 255 256 258 259 260 261 262 264 265 266 267 269 270 271 273 274 275 277 278 280 281 283 284 286 287 289 291 292 293 295 296 297 298 299 300 301 302 303 304 304 305 305 305
255 256 257 258 259 261 262 263 263 264 266 267 268 270 271 273 274 275 277 278 280 281 283 285 287 288 290 291 292 294 295 296 297 298 299 300 301 302 303 304 305 305 305 305
256 257 257 258 260 261 262 263 264 265 266 268 269 270 272 273 274 276 277 279 281 282 284 286 287 289 290 291 293 294 295 296 298 299 299 300 301 302 303 304 305 305 305 305
257 258 258 259 260 261 262 263 264 266 267 268 270 271 273 274 276 277 278 280 281 283 285 286 288 289 291 292 293 294 296 297 298 298 299 300 302 303 304 304 305 305 306 305
257 258 259 260 261 262 262 264 265 267 268 269 270 272 274 275 277 278 279 281 282 284 286 287 289 290 291 292 294 295 296 297 297 298 299 300 302 303 303 304 305 305 306 305
257 258 260 261 262 263 264 265 266 267 268 270 271 272 274 276 278 279 281 282 284 285 286 288 289 290 291 292 293 294 295 296 297 298 299 301 302 302 303 304 304 305 305 305
259 259 260 262 263 264 265 266 267 268 269 270 271 273 275 276 278 280 281 283 284 286 287 288 289 290 292 293 293 294 295 296 297 298 299 300 301 302 303 303 304 304 304 304
260 260 261 262 263 264 266 267 269 270 271 272 273 275 276 278 279 281 282 284 285 287 288 289 289 291 292 293 294 294 295 296 297 298 299 300 301 301 302 303 303 303 303 303
261 262 263 264 265 266 267 268 269 271 272 273 275 276 277 279 280 282 283 285 286 287 288 289 290 291 292 293 294 294 295 296 297 298 299 300 301 301 302 302 303 303 302 301
Height
5834 5836 5837 5839 5841 5842 5844 5846 5848 5851 5852 5854 5855 5856 5857 5858 5859 5860 5860 5861 5861 5862 5862 5862 5862 5861 5861 5860 5859 5858 5856 5855 5853 5851 5849 5846 5844 5841 5838 5835 5831 5829 5826 5823
5832 5834 5835 5837 5839 5840 5842 5844 5846 5848 5850 5851 5852 5854 5855 5856 5856 5857 5857 5858 5858 5859 5859 5859 5858 5858 5857 5857 5855 5854 5853 5851 5849 5847 5845 5842 5839 5836 5833 5830 5827 5824 5821 5819
5830 5831 5833 5835 5837 5838 5840 5841 5843 5845 5848 5848 5849 5851 5852 5853 5853 5854 5854 5855 5855 5855 5855 5855 5855 5854 5853 5853 5851 5850 5848 5846 5845 5842 5840 5837 5834 5831 5828 5824 5821 5818 5815 5812
5827 5830 5831 5836 5834 5835 5836 5838 5840 5842 5843 5845 5846 5847 5848 5849 5850 5850 5851 5851 5851 5851 5851 5851 5850 5850 5849 5848 5846 5845 5843 5841 5839 5837 5834 5831 5828 5825 5822 5818 5815 5812 5808 5806
5824 5825 5828 5831 5831 5832 5833 5835 5837 5838 5840 5841 5842 5843 5844 5845 5845 5846 5846 5846 5847 5847 5846 5846 5845 5845 5844 5842 5841 5839 5837 5835 5833 5830 5828 5825 5822 5818 5815 5811 5808 5804 5801 5798
5820 5821 5824 5828 5828 5828 5831 5832 5833 5834 5836 5837 5838 5839 5841 5840 5841 5841 5841 5842 5842 5841 5841 5841 5840 5839 5838 5836 5835 5833 5830 5828 5826 5823 5821 5817 5814 5810 5807 5803 5799 5796 5792 5788
5816 5817 5820 5823 5823 5825 5827 5830 5829 5830 5831 5832 5833 5835 5836 5835 5836 5836 5836 5836 5836 5836 5835 5834 5833 5832 5831 5829 5827 5825 5823 5821 5818 5815 5812 5809 5806 5802 5798 5794 5790 5786 5782 5778
5810 5812 5817 5818 5819 5820 5822 5823 5824 5825 5826 5827 5828 5829 5829 5830 5830 5830 5830 5830 5830 5829 5828 5827 5826 5825 5823 5822 5820 5817 5815 5812 5810 5806 5803 5800 5796 5792 5788 5784 5779 5775 5770 5766
5806 5810 5811 5812 5813 5814 5816 5817 5818 5819 5820 5821 5822 5822 5823 5823 5824 5824 5824 5824 5823 5822 5821 5820 5818 5817 5815 5813 5811 5808 5806 5803 5800 5797 5793 5789 5785 5781 5777 5772 5767 5763 5758 5753
5800 5802 5804 5805 5806 5808 5809 5811 5812 5813 5814 5815 5815 5816 5816 5817 5817 5817 5816 5816 5815 5814 5813 5811 5810 5808 5806 5804 5802 5799 5796 5793 5790 5786 5782 5778 5774 5769 5765 5760 5754 5749 5744 5739
5792 5794 5796 5798 5799 5801 5802 5803 5804 5805 5806 5807 5808 5808 5809 5809 5809 5809 5808 5807 5807 5806 5804 5803 5801 5799 5796 5794 5791 5789 5786 5782 5779 5775 5771 5767 5762 5757 5752 5746 5740 5734 5729 5723
5784 5786 5788 5790 5791 5793 5794 5795 5796 5797 5798 5799 5799 5800 5800 5800 5800 5799 5799 5798 5797 5796 5794 5793 5791 5788 5786 5783 5780 5778 5774 5771 5767 5763 5759 5754 5749 5744 5738 5732 5726 5719 5712 5706
5775 5777 5778 5780 5782 5783 5785 5786 5787 5788 5789 5789 5790 5790 5790 5790 5790 5789 5788 5787 5786 5785 5783 5782 5779 5777 5774 5772 5769 5766 5762 5759 5754 5750 5746 5741 5736 5730 5725 5719 5711 5704 5696 5689
5764 5766 5768 5770 5772 5773 5775 5776 5777 5778 5779 5780 5780 5780 5780 5779 5779 5778 5777 5776 5775 5773 5772 5770 5768 5765 5762 5759 5756 5753 5749 5745 5741 5737 5732 5727 5721 5715 5709 5703 5697 5690 5681 5672
5754 5756 5758 5759 5761 5763 5764 5766 5767 5768 5768 5769 5769 5769 5768 5768 5767 5766 5765 5764 5763 5761 5759 5757 5755 5752 5749 5746 5743 5740 5736 5732 5727 5722 5717 5711 5705 5699 5693 5686 5680 5673 5665 5657
5742 5744 5746 5748 5750 5752 5753 5754 5755 5756 5756 5757 5757 5757 5756 5756 5755 5754 5753 5752 5750 5748 5746 5744 5742 5739 5736 5733 5729 5726 5721 5717 5712 5707 5702 5696 5690 5683 5676 5669 5662 5655 5647 5639
5731 5733 5735 5737 5738 5739 5741 5742 5743 5744 5744 5744 5744 5744 5743 5743 5742 5741 5740 5738 5737 5735 5733 5730 5728 5725 5722 5719 5715 5711 5707 5702 5696 5691 5685 5679 5673 5666 5659 5651 5644 5637 5629 5620
5719 5721 5723 5724 5726 5727 5729 5730 5730 5731 5731 5731 5731 5731 5731 5730 5729 5728 5726 5725 5723 5721 5719 5716 5713 5710 5707 5704 5700 5695 5691 5686 5680 5675 5669 5662 5655 5648 5641 5633 5626 5618 5611 5602
5706 5708 5710 5711 5713 5714 5715 5716 5717 5718 5718 5718 5718 5718 5717 5716 5715 5714 5712 5711 5709 5707 5704 5701 5698 5695 5692 5688 5684 5679 5674 5669 5663 5657 5651 5644 5638 5630 5623 5615 5607 5599 5592 5584
5693 5695 5697 5698 5700 5701 5702 5703 5703 5704 5704 5704 5704 5704 5703 5702 5701 5699 5698 5696 5694 5692 5689 5686 5683 5680 5676 5672 5667 5662 5657 5651 5646 5639 5633 5626 5619 5612 5604 5597 5589 5581 5573 5565
5680 5681 5683 5685 5686 5687 5688 5689 5689 5690 5690 5690 5690 5689 5688 5687 5686 5684 5683 5681 5679 5676 5673 5670 5667 5663 5659 5654 5650 5645 5639 5633 5627 5621 5614 5608 5601 5594 5586 5578 5570 5563 5555 5547
5666 5667 5669 5670 5672 5673 5674 5674 5675 5675 5675 5675 5675 5674 5673 5672 5671 5669 5667 5665 5663 5660 5657 5653 5650 5646 5641 5637 5632 5627 5621 5615 5609 5602 5595 5589 5582 5575 5568 5560 5552 5545 5537 5530
5652 5654 5655 5656 5657 5658 5659 5660 5660 5660 5660 5660 5659 5659 5658 5656 5655 5653 5652 5649 5646 5643 5640 5636 5632 5628 5623 5619 5614 5608 5602 5596 5590 5583 5577 5570 5563 5556 5549 5542 5535 5527 5520 5513
5638 5639 5640 5642 5643 5643 5644 5645 5645 5645 5645 5644 5644 5643 5641 5640 5639 5637 5634 5632 5629 5625 5622 5618 5614 5610 5605 5600 5595 5589 5583 5577 5571 5565 5558 5552 5545 5538 5531 5525 5518 5511 5503 5496
5623 5624 5625 5627 5627 5628 5629 5629 5629 5629 5629 5628 5627 5626 5625 5623 5622 5619 5617 5614 5611 5607 5604 5600 5595 5591 5586 5581 5576 5570 5564 5558 5552 5546 5540 5534 5528 5521 5514 5508 5501 5494 5487 5481
5607 5609 5610 5611 5611 5612 5612 5612 5612 5612 5612 5611 5610 5609 5607 5605 5603 5601 5598 5595 5592 5589 5585 5581 5576 5572 5567 5562 5557 5551 5546 5540 5534 5528 5522 5516 5510 5504 5497 5491 5485 5478 5472 5466
5591 5592 5593 5594 5594 5595 5595 5595 5595 5595 5594 5593 5593 5591 5589 5587 5585 5582 5579 5576 5573 5570 5566 5562 5558 5553 5548 5543 5538 5533 5527 5522 5516 5511 5505 5499 5493 5487 5481 5475 5469 5463 5457 5452